Time,TemperatureF,DewpointF,PressureIn,WindDirection,WindDirectionDegrees,WindSpeedMPH,WindSpeedGustMPH,Humidity,HourlyPrecipIn,Conditions,Clouds,dailyrainin,SoftwareType,DateUTC
2013-02-08 00:13:00,42.4,26.5,29.86,ENE,67,0.0,-999.0,53,-99.99,,,0.00,Acu-Link.com,2013-02-08 07:13:00,
2013-02-08 00:28:00,42.3,26.4,29.87,East,90,0.0,-999.0,53,-99.99,,,0.00,Acu-Link.com,2013-02-08 07:28:00,
2013-02-08 00:44:00,40.8,24.1,29.86,ESE,112,0.0,-999.0,51,-99.99,,,0.00,Acu-Link.com,2013-02-08 07:44:00,
2013-02-08 00:59:00,40.1,23.4,29.87,SW,225,0.0,-999.0,51,-99.99,,,0.00,Acu-Link.com,2013-02-08 07:59:00,
2013-02-08 01:14:00,39.9,23.7,29.86,WNW,292,2.2,-999.0,52,-99.99,,,0.00,Acu-Link.com,2013-02-08 08:14:00,
2013-02-08 01:30:00,39.4,23.7,29.87,SSW,202,0.0,-999.0,53,-99.99,,,0.00,Acu-Link.com,2013-02-08 08:30:00,
2013-02-08 01:45:00,39.0,23.3,29.85,ENE,67,0.0,-999.0,53,-99.99,,,0.00,Acu-Link.com,2013-02-08 08:45:00,
2013-02-08 02:00:00,38.8,23.6,29.86,NW,315,0.0,-999.0,54,-99.99,,,0.00,Acu-Link.com,2013-02-08 09:00:00,
2013-02-08 02:15:00,38.3,23.1,29.86,SE,135,0.0,-999.0,54,-99.99,,,0.00,Acu-Link.com,2013-02-08 09:15:00,
2013-02-08 02:31:00,37.2,22.5,29.85,ESE,112,0.0,-999.0,55,-99.99,,,0.00,Acu-Link.com,2013-02-08 09:31:00,
2013-02-08 02:46:00,36.1,22.4,29.85,North,0,0.0,-999.0,57,-99.99,,,0.00,Acu-Link.com,2013-02-08 09:46:00,
2013-02-08 03:01:00,35.2,22.3,29.84,WNW,292,0.0,-999.0,59,-99.99,,,0.00,Acu-Link.com,2013-02-08 10:01:00,
2013-02-08 03:17:00,34.3,21.9,29.85,ESE,112,0.0,-999.0,60,-99.99,,,0.00,Acu-Link.com,2013-02-08 10:17:00,
2013-02-08 03:32:00,33.4,21.8,29.84,ESE,112,0.0,-999.0,62,-99.99,,,0.00,Acu-Link.com,2013-02-08 10:32:00,
2013-02-08 03:47:00,32.7,21.9,29.84,SSW,202,0.0,-999.0,64,-99.99,,,0.00,Acu-Link.com,2013-02-08 10:47:00,
2013-02-08 04:03:00,32.0,21.6,29.85,WSW,247,0.0,-999.0,65,-99.99,,,0.00,Acu-Link.com,2013-02-08 11:03:00,
2013-02-08 04:18:00,31.8,21.8,29.83,WSW,247,0.0,-999.0,66,-99.99,,,0.00,Acu-Link.com,2013-02-08 11:18:00,
2013-02-08 04:33:00,31.6,21.9,29.83,ESE,112,0.0,-999.0,67,-99.99,,,0.00,Acu-Link.com,2013-02-08 11:33:00,
2013-02-08 04:49:00,31.6,22.3,29.82,NNE,22,0.0,-999.0,68,-99.99,,,0.00,Acu-Link.com,2013-02-08 11:49:00,
2013-02-08 05:04:00,31.8,21.8,29.84,ENE,67,0.0,-999.0,66,-99.99,,,0.00,Acu-Link.com,2013-02-08 12:04:00,
2013-02-08 05:19:00,32.0,21.9,29.83,West,270,0.0,-999.0,66,-99.99,,,0.00,Acu-Link.com,2013-02-08 12:19:00,
2013-02-08 05:35:00,31.6,21.6,29.83,SSW,202,0.0,-999.0,66,-99.99,,,0.00,Acu-Link.com,2013-02-08 12:35:00,
2013-02-08 05:50:00,31.3,21.6,29.84,NW,315,0.0,-999.0,67,-99.99,,,0.00,Acu-Link.com,2013-02-08 12:50:00,
2013-02-08 06:05:00,31.8,22.1,29.82,NE,45,0.0,-999.0,67,-99.99,,,0.00,Acu-Link.com,2013-02-08 13:05:00,
2013-02-08 06:20:00,31.8,21.8,29.82,WSW,247,0.0,-999.0,66,-99.99,,,0.00,Acu-Link.com,2013-02-08 13:20:00,
2013-02-08 06:36:00,32.0,21.9,29.82,SW,225,1.1,-999.0,66,-99.99,,,0.00,Acu-Link.com,2013-02-08 13:36:00,
2013-02-08 06:51:00,31.6,21.6,29.82,SSW,202,0.0,-999.0,66,-99.99,,,0.00,Acu-Link.com,2013-02-08 13:51:00,
2013-02-08 07:06:00,31.3,21.6,29.83,SSW,202,0.0,-999.0,67,-99.99,,,0.00,Acu-Link.com,2013-02-08 14:06:00,
2013-02-08 07:22:00,31.6,22.3,29.82,South,180,0.0,-999.0,68,-99.99,,,0.00,Acu-Link.com,2013-02-08 14:22:00,
2013-02-08 07:37:00,32.0,22.3,29.82,South,180,0.0,-999.0,67,-99.99,,,0.00,Acu-Link.com,2013-02-08 14:37:00,
2013-02-08 07:52:00,32.7,23.0,29.83,NNW,337,0.0,-999.0,67,-99.99,,,0.00,Acu-Link.com,2013-02-08 14:52:00,
2013-02-08 08:08:00,34.3,23.4,29.83,South,180,0.0,-999.0,64,-99.99,,,0.00,Acu-Link.com,2013-02-08 15:08:00,
2013-02-08 08:23:00,35.6,24.3,29.84,SSW,202,0.0,-999.0,63,-99.99,,,0.00,Acu-Link.com,2013-02-08 15:23:00,
2013-02-08 08:38:00,37.4,24.8,29.84,NNW,337,0.0,-999.0,60,-99.99,,,0.00,Acu-Link.com,2013-02-08 15:38:00,
2013-02-08 08:54:00,39.4,25.5,29.82,ESE,112,0.0,-999.0,57,-99.99,,,0.00,Acu-Link.com,2013-02-08 15:54:00,
2013-02-08 09:09:00,40.8,25.9,29.81,WSW,247,0.0,-999.0,55,-99.99,,,0.00,Acu-Link.com,2013-02-08 16:09:00,
2013-02-08 09:24:00,42.3,26.4,29.81,SW,225,0.0,-999.0,53,-99.99,,,0.00,Acu-Link.com,2013-02-08 16:24:00,
2013-02-08 09:40:00,43.5,27.1,29.80,NNE,22,0.0,-999.0,52,-99.99,,,0.00,Acu-Link.com,2013-02-08 16:40:00,
2013-02-08 09:55:00,43.3,26.4,29.78,NE,45,2.2,-999.0,51,-99.99,,,0.00,Acu-Link.com,2013-02-08 16:55:00,
2013-02-08 10:10:00,45.1,27.1,29.78,North,0,0.0,-999.0,49,-99.99,,,0.00,Acu-Link.com,2013-02-08 17:10:00,
2013-02-08 10:25:00,46.6,28.0,29.77,SW,225,0.0,-999.0,48,-99.99,,,0.00,Acu-Link.com,2013-02-08 17:25:00,
2013-02-08 10:41:00,48.2,28.4,29.77,South,180,0.0,-999.0,46,-99.99,,,0.00,Acu-Link.com,2013-02-08 17:41:00,
2013-02-08 10:56:00,48.7,28.3,29.77,West,270,1.7,-999.0,45,-99.99,,,0.00,Acu-Link.com,2013-02-08 17:56:00,
2013-02-08 11:11:00,49.5,29.1,29.76,SSW,202,0.0,-999.0,45,-99.99,,,0.00,Acu-Link.com,2013-02-08 18:11:00,
2013-02-08 11:27:00,49.5,28.5,29.75,ENE,67,0.0,-999.0,44,-99.99,,,0.00,Acu-Link.com,2013-02-08 18:27:00,
2013-02-08 11:42:00,51.8,29.4,29.73,South,180,0.0,-999.0,42,-99.99,,,0.00,Acu-Link.com,2013-02-08 18:42:00,
2013-02-08 11:57:00,53.4,29.7,29.71,South,180,1.7,-999.0,40,-99.99,,,0.00,Acu-Link.com,2013-02-08 18:57:00,
2013-02-08 12:12:00,54.5,30.7,29.70,ENE,67,3.7,-999.0,40,-99.99,,,0.00,Acu-Link.com,2013-02-08 19:12:00,
2013-02-08 12:28:00,57.0,31.0,29.69,NNW,337,0.0,-999.0,37,-99.99,,,0.00,Acu-Link.com,2013-02-08 19:28:00,
2013-02-08 12:43:00,56.8,30.8,29.65,SW,225,2.7,-999.0,37,-99.99,,,0.00,Acu-Link.com,2013-02-08 19:43:00,
2013-02-08 12:58:00,57.2,31.2,29.64,East,90,1.7,-999.0,37,-99.99,,,0.00,Acu-Link.com,2013-02-08 19:58:00,
2013-02-08 13:14:00,58.8,31.9,29.62,SSE,157,5.3,-999.0,36,-99.99,,,0.00,Acu-Link.com,2013-02-08 20:14:00,
2013-02-08 13:29:00,59.4,31.0,29.63,East,90,4.2,-999.0,34,-99.99,,,0.00,Acu-Link.com,2013-02-08 20:29:00,
2013-02-08 13:44:00,59.4,31.0,29.62,West,270,4.2,-999.0,34,-99.99,,,0.00,Acu-Link.com,2013-02-08 20:44:00,
2013-02-08 14:00:00,60.1,30.9,29.60,SW,225,6.3,-999.0,33,-99.99,,,0.00,Acu-Link.com,2013-02-08 21:00:00,
2013-02-08 14:15:00,59.7,30.6,29.59,NNE,22,5.3,-999.0,33,-99.99,,,0.00,Acu-Link.com,2013-02-08 21:15:00,
2013-02-08 14:30:00,60.1,30.9,29.60,South,180,9.9,-999.0,33,-99.99,,,0.00,Acu-Link.com,2013-02-08 21:30:00,
2013-02-08 14:45:00,59.4,29.5,29.60,SW,225,8.3,-999.0,32,-99.99,,,0.00,Acu-Link.com,2013-02-08 21:45:00,
2013-02-08 15:01:00,58.3,29.3,29.59,East,90,3.7,-999.0,33,-99.99,,,0.00,Acu-Link.com,2013-02-08 22:01:00,
2013-02-08 15:16:00,58.1,29.9,29.57,ESE,112,4.7,-999.0,34,-99.99,,,0.00,Acu-Link.com,2013-02-08 22:16:00,
2013-02-08 15:31:00,57.7,30.2,29.57,WSW,247,5.3,-999.0,35,-99.99,,,0.00,Acu-Link.com,2013-02-08 22:31:00,
2013-02-08 15:46:00,57.6,30.8,29.57,East,90,7.8,-999.0,36,-99.99,,,0.00,Acu-Link.com,2013-02-08 22:46:00,
2013-02-08 16:02:00,57.4,30.7,29.56,SE,135,5.8,-999.0,36,-99.99,,,0.00,Acu-Link.com,2013-02-08 23:02:00,
2013-02-08 16:17:00,57.4,30.7,29.56,SW,225,5.8,-999.0,36,-99.99,,,0.00,Acu-Link.com,2013-02-08 23:17:00,
2013-02-08 16:32:00,57.0,30.3,29.53,NNE,22,7.8,-999.0,36,-99.99,,,0.00,Acu-Link.com,2013-02-08 23:32:00,
2013-02-08 16:48:00,56.7,30.1,29.55,SE,135,4.7,-999.0,36,-99.99,,,0.00,Acu-Link.com,2013-02-08 23:48:00,
2013-02-08 17:03:00,56.1,30.2,29.54,East,90,5.8,-999.0,37,-99.99,,,0.00,Acu-Link.com,2013-02-09 00:03:00,
2013-02-08 17:18:00,55.6,29.7,29.53,ENE,67,7.3,-999.0,37,-99.99,,,0.00,Acu-Link.com,2013-02-09 00:18:00,
2013-02-08 17:34:00,55.2,29.4,29.53,SSE,157,6.3,-999.0,37,-99.99,,,0.00,Acu-Link.com,2013-02-09 00:34:00,
2013-02-08 17:49:00,54.9,29.1,29.53,East,90,5.3,-999.0,37,-99.99,,,0.00,Acu-Link.com,2013-02-09 00:49:00,
2013-02-08 18:04:00,54.3,28.6,29.53,NNE,22,7.8,-999.0,37,-99.99,,,0.00,Acu-Link.com,2013-02-09 01:04:00,
2013-02-08 18:20:00,54.1,28.4,29.55,ESE,112,6.3,-999.0,37,-99.99,,,0.00,Acu-Link.com,2013-02-09 01:20:00,
2013-02-08 18:35:00,54.0,28.3,29.55,SSE,157,4.7,-999.0,37,-99.99,,,0.00,Acu-Link.com,2013-02-09 01:35:00,
2013-02-08 18:50:00,54.0,28.3,29.53,NW,315,4.2,-999.0,37,-99.99,,,0.00,Acu-Link.com,2013-02-09 01:50:00,
2013-02-08 19:05:00,54.1,28.4,29.54,SSW,202,3.2,-999.0,37,-99.99,,,0.00,Acu-Link.com,2013-02-09 02:05:00,
2013-02-08 19:21:00,53.8,28.1,29.54,SSE,157,7.8,-999.0,37,-99.99,,,0.00,Acu-Link.com,2013-02-09 02:21:00,
2013-02-08 19:36:00,53.6,28.0,29.56,North,0,3.7,-999.0,37,-99.99,,,0.00,Acu-Link.com,2013-02-09 02:36:00,
2013-02-08 19:51:00,53.2,27.6,29.54,SSE,157,4.7,-999.0,37,-99.99,,,0.00,Acu-Link.com,2013-02-09 02:51:00,
2013-02-08 20:06:00,52.5,27.6,29.56,West,270,4.2,-999.0,38,-99.99,,,0.00,Acu-Link.com,2013-02-09 03:06:00,
2013-02-08 20:22:00,52.2,27.4,29.55,ESE,112,4.2,-999.0,38,-99.99,,,0.00,Acu-Link.com,2013-02-09 03:22:00,
2013-02-08 20:37:00,51.6,26.2,29.54,NNE,22,4.2,-999.0,37,-99.99,,,0.00,Acu-Link.com,2013-02-09 03:37:00,
2013-02-08 20:52:00,50.9,25.6,29.54,ESE,112,4.2,-999.0,37,-99.99,,,0.00,Acu-Link.com,2013-02-09 03:52:00,
2013-02-08 21:07:00,50.9,25.6,29.54,SSW,202,4.7,-999.0,37,-99.99,,,0.00,Acu-Link.com,2013-02-09 04:07:00,
2013-02-08 21:23:00,50.7,25.4,29.54,SE,135,4.2,-999.0,37,-99.99,,,0.00,Acu-Link.com,2013-02-09 04:23:00,
2013-02-08 21:38:00,50.0,24.8,29.53,SE,135,4.7,-999.0,37,-99.99,,,0.00,Acu-Link.com,2013-02-09 04:38:00,
2013-02-08 21:53:00,50.0,24.8,29.52,SSW,202,2.2,-999.0,37,-99.99,,,0.00,Acu-Link.com,2013-02-09 04:53:00,
2013-02-08 22:09:00,49.6,24.4,29.52,ESE,112,5.8,-999.0,37,-99.99,,,0.00,Acu-Link.com,2013-02-09 05:09:00,
2013-02-08 22:24:00,49.6,24.4,29.52,East,90,1.7,-999.0,37,-99.99,,,0.00,Acu-Link.com,2013-02-09 05:24:00,
2013-02-08 22:39:00,49.3,24.1,29.51,NW,315,0.0,-999.0,37,-99.99,,,0.00,Acu-Link.com,2013-02-09 05:39:00,
2013-02-08 22:55:00,48.9,23.8,29.51,SSW,202,2.7,-999.0,37,-99.99,,,0.00,Acu-Link.com,2013-02-09 05:55:00,
2013-02-08 23:10:00,48.9,25.0,29.51,NW,315,2.2,-999.0,39,-99.99,,,0.00,Acu-Link.com,2013-02-09 06:10:00,
2013-02-08 23:25:00,48.7,25.5,29.51,SW,225,2.7,-999.0,40,-99.99,,,0.00,Acu-Link.com,2013-02-09 06:25:00,
2013-02-08 23:40:00,48.7,26.6,29.49,ESE,112,3.2,-999.0,42,-99.99,,,0.00,Acu-Link.com,2013-02-09 06:40:00,
2013-02-08 23:56:00,48.2,26.8,29.49,ENE,67,4.7,-999.0,43,-99.99,,,0.00,Acu-Link.com,2013-02-09 06:56:00,